Regional Weather Roundup
Issued by NWS Upton, NY

Current Version | Previous Version | Graphics & Text | Print | Product List | Glossary Off
Versions: 1 2 3 4 5 6 7 8 9 10 11 12 13 14 15 16 17 18 19 20 21 22 23 24 25 26 27 28 29 30

000
ASUS41 KOKX 272205
RWROKX

REGIONAL WEATHER ROUNDUP
NATIONAL WEATHER SERVICE NEW YORK NY
600 PM EDT SAT AUG 27 2016

NOTE: "FAIR" INDICATES FEW OR NO CLOUDS BELOW 12,000 FEET WITH NO
SIGNIFICANT WEATHER AND/OR OBSTRUCTIONS TO VISIBILITY.

NYZ071-072-176-178-NJZ106-104-272300-
NEW YORK CITY METRO AREA

CITY           SKY/WX    TMP DP  RH WIND       PRES   REMARKS
Central Park   SUNNY     82  58  43 VRB5      30.20S
LaGuardia APRT PTSUNNY   86  58  38 SE13      30.17R
Kennedy INTL   PTSUNNY   82  62  50 SE7       30.19R
Newark/Liberty PTSUNNY   84  55  36 SE10      30.17S
Bronx Bot Gard   N/A     84  57  39 SE5       30.18F
Wall St Helipt PTCLDY    86  57  37 SE6       30.18S
Teterboro      SUNNY     85  56  37 S8        30.16R
$$

NYZ177-179-078>081-272300-
LONG ISLAND NEW YORK

CITY           SKY/WX    TMP DP  RH WIND       PRES   REMARKS
Farmingdale    MOSUNNY   83  56  39 SE7       30.18S
MacArthur/ISP  PTSUNNY   83  54  36 SE8       30.18R
Shirley        SUNNY     82  54  37 SE5       30.19R
Riverhead      NOT AVBL
Westhampton    SUNNY     80  55  42 SE7       30.20S
Southampton      N/A     79  64  61 S5        30.15
Bridgehampton    N/A     79  63  57 SW1       30.17
East Hampton   FAIR      77  61  57 SE3       30.18S
Montauk          N/A     78  66  66 S5        30.20R
$$

NYZ052-065-067-272300-
HUDSON VALLEY

CITY           SKY/WX    TMP DP  RH WIND       PRES   REMARKS
White Plains   SUNNY     82  60  47 SE6       30.18S
Newburgh       MOSUNNY   84  66  54 CALM      30.19S
Montgomery     SUNNY     85  65  51 S5        30.16F
Poughkeepsie   SUNNY     85  57  38 CALM      30.15S
Albany         MOSUNNY   84  62  47 VRB3      30.16S
$$

NJZ001-105-106-008-010-013-015-019>022-104-272300-
NEW JERSEY

CITY           SKY/WX    TMP DP  RH WIND       PRES   REMARKS
Newark/Liberty PTSUNNY   84  55  36 SE10      30.17S
Teterboro      SUNNY     85  56  37 S8        30.16R
Caldwell       SUNNY     85  59  41 SE8       30.17S
Morristown     MOSUNNY   86  59  39 SE9       30.17S
Somerville     MOSUNNY   87  61  41 E3        30.14S
Linden         FAIR      84  53  33 SE8       30.19S
Sussex         SUNNY     85  62  46 CALM      30.18S
Abdover          N/A     84  64  50 CALM      30.18S
Trenton        MOSUNNY   84  58  40 SE7       30.16R
Millville      SUNNY     85  70  60 SE8       30.15S
Atlantic City  SUNNY     82  65  56 E13       30.16S
Wrightstown    SUNNY     82  62  49 E7        30.14S
Toms River     CLOUDY    81  66  60 SE6       30.18S
Belmar         CLOUDY    81  62  52 VRB5      30.19S
$$

PAZ047>061-062-071-272300-
EASTERN PENNSYLVANIA

CITY           SKY/WX    TMP DP  RH WIND       PRES   REMARKS
Philadelphia   CLOUDY    89  61  38 E8        30.14S
Allentown      SUNNY     88  61  40 E5        30.16S
Scranton       MOSUNNY   82  65  56 S6        30.18S
$$

CTZ002-004>006-009-010-012-RIZ004-006-007-MAZ004-011-015-272300-
SOUTHERN NEW ENGLAND
 IN CT

CITY           SKY/WX    TMP DP  RH WIND       PRES   REMARKS
Bradley INTL   MOSUNNY   87  59  38 S8        30.16S
Hartford       SUNNY     87  62  43 SE5       30.15S
Danbury        SUNNY     81  60  48 S7        30.19S
Wtrbury/Oxford SUNNY     81  59  47 SW7       30.23S
Bridgeport     SUNNY     84  60  44 S6        30.17S
Meriden        SUNNY     85  58  39 S8        30.17R
New Haven      MOSUNNY   83  59  44 S7        30.18R
Chester        FAIR      82  61  47 VRB6      30.19S
Groton         SUNNY     79  64  60 S7        30.18R
Wilimantic     MOSUNNY   84  63  49 S8        30.18R

 IN RI

CITY           SKY/WX    TMP DP  RH WIND       PRES   REMARKS
Providence     MOSUNNY   83  57  41 S10       30.18R
Block Island   CLOUDY    77  67  71 S7        30.20R
Westerly       MOSUNNY   80  58  46 S7        30.19S
 IN MA

CITY           SKY/WX    TMP DP  RH WIND       PRES   REMARKS
Boston         MOSUNNY   75  57  53 E14       30.18R
Worcester      SUNNY     82  57  42 W6        30.21R
Westfield      MOSUNNY   84  60  44 S7        30.15S
Provincetown   SUNNY     78  58  49 E8        30.19S
Nantucket      SUNNY     75  60  59 NE10      30.18S
$$

ANZ330-335-338-340-345-350-353-355-272300-
COASTAL MARINE OBSERVATIONS


STATION/POSITION TIME  SKY/WX   TEMP    WIND        PRES    VSBY  WAVE
                                AIR SEA DIR/SP/G                  HT/PER
                 (UTC)          (F)     (DEG/KT/KT) (MB)    (MI)  (FT/S)
NY HARB ENTRANCE 2050            77 75  120/  8/  8 1021.4          2/10
20S FIRE ISLAND  2050            76 76   80/  6/  6 1021.4          2/10
GREAT SOUTH BAY  2130            78 80  100/  6/  8   N/A
23 SSW MONTAUK P 2050            76 78  130/  6/  6 1022.1          2/10
15 E BARNEGAT LI 2100               77                N/A           3/10
HUDSON CANYON    2050            78 78              1020.7          4/ 5
KINGS POINT      2100            82 77              1021.5
EXECUTION ROCKS  2115            83      50/  6/  8   N/A
CENTRAL LI SOUND 2100            81 78  180/  6/  8   N/A           1
EASTERN LI SOUND 2100            76 72  150/  4/  4   N/A
ROBBINS REEF     2106            77     180/ 11/ 12 1021.2
$$


>>>>>>>>>>>>>>>>>>>>>>>>>>>> KEY <<<<<<<<<<<<<<<<<<<<<<<<<<<
>                                                          <
>     SKY/WX - Sky Condition/Present Weather               <
>     TMP    - Temperature in Fahrenheit                   <
>     DP     - Dew Point in Fahrenheit                     <
>     RH     - Relative Humidity in Percent                <
>     WIND   - Direction (from) and Speed in MPH           <
>     PRES   - Mean Sea Level Pressure (inches of Hg)      <
>     WCI    - Wind Chill Index                            <
>     VSB    - VISIBILITY IN MILES                         <
>     HX     - HEAT INDEX                                  <
>     TC     - TEMPERATURE IN CELSIUS                      <
>     VRB    - VARIABLE WIND DIRECTION                     <
>                                                          <
>>>>>>>>>>>>>>>>>>>>>>>>>>>> KEY <<<<<<<<<<<<<<<<<<<<<<<<<<<




USA.gov is the U.S. government's official web portal to all federal, state and local government web resources and services.